#timestamp,LO_Frequency,Hit,StdDev 
1589479215.4,286047002.9,N
1589479235.3,286046999.8,N
1589479255.1,286047002.1,N
1589479256.0,286047002.1,N
1589479275.8,286047002.1,N
1589479295.7,286047002.7,N
1589479315.5,286047000.7,N
1589479335.3,286046999.9,N
1589479355.2,286047002.6,N
1589479375.0,286047000.9,N
1589479375.9,286047000.9,N
1589479395.8,286046998.2,N
1589479415.6,286047002.8,N
1589479435.4,286047001.7,N
1589479455.3,286047002.0,N
1589479475.1,286047002.6,N
1589479495.9,286047001.3,N
1589479515.7,286047004.2,N
1589479535.5,286046999.9,N
1589479555.4,286047004.1,N
1589479575.2,286047001.3,N
1589479595.0,286047002.1,N
1589479595.9,286047002.1,N
1589479615.8,286047000.5,N
1589479635.6,286047000.1,N
1589479655.5,286047000.3,N
1589479675.3,286047000.5,N
1589479695.1,286047000.8,N
1589479715.9,286047000.3,N
1589479735.7,286046999.9,N
1589479755.6,286047000.0,N
1589479775.4,286047000.9,N
1589479795.2,286047000.4,N
1589479815.1,286047000.9,N
1589479816.0,286047000.9,N
1589479835.8,286046998.3,N
1589479855.6,286046998.7,N
1589479875.5,286046998.7,N
1589479895.3,286047001.1,N
1589479915.2,286047000.6,N
1589479935.9,286046999.3,N
1589479955.7,286047001.1,N
1589479975.6,286047001.2,N
1589479995.4,286046998.4,N
1589480015.3,286047001.2,N
1589480035.1,286046999.7,N
1589480036.0,286046999.7,N
1589480055.8,286047000.6,N
1589480075.7,286046999.7,N
1589480095.5,286046999.9,N
1589480115.3,286047001.8,N
1589480135.2,286047000.6,N
1589480155.0,286047001.1,N
1589480155.9,286047001.1,N
1589480175.8,286047000.7,N
1589480195.6,286047001.1,N
1589480215.4,286046998.3,N
1589480235.3,286047000.3,N
1589480255.1,286047000.8,N
1589480275.9,286046998.8,N
1589480295.7,286046999.3,N
1589480315.5,286046996.6,Y
1589480335.4,286046996.8,P
1589480355.2,286046998.3,N
1589480375.0,286046998.1,N
1589480375.9,286046998.1,N
1589480395.8,286046998.5,N
1589480415.6,286046999.2,N
1589480435.5,286046999.6,N
1589480455.3,286046999.4,N
1589480475.1,286046999.1,N
1589480495.9,286046999.1,N
1589480515.7,286046998.5,N
1589480535.6,286046998.3,N
1589480555.4,286046999.4,N
1589480575.2,286046998.9,N
1589480595.1,286046999.0,N
1589480596.0,286046999.0,N
1589480615.8,286046998.7,N
1589480635.7,286046999.1,N
1589480655.5,286046997.0,Y
1589480675.3,286046999.0,P
1589480695.2,286046996.7,P
1589480715.0,286046999.2,N
1589480715.9,286046999.2,N
1589480735.8,286046995.3,Y
1589480755.6,286046995.3,P
1589480775.4,286046995.3,N
1589480795.3,286046996.6,N
1589480815.1,286046998.7,N
1589480835.8,286046998.7,N
1589480855.7,286047000.8,N
1589480875.5,286047001.0,N
1589480895.4,286047001.8,N
1589480915.2,286047003.5,N
1589480935.0,286047003.7,N
1589480935.9,286047003.7,N
1589480955.8,286047001.7,N
1589480975.6,286047001.3,N
1589480995.5,286047001.3,N
1589481015.3,286046999.7,N
1589481035.1,286047000.4,N
1589481055.9,286047001.7,N
1589481075.7,286047001.3,N
1589481095.5,286047002.7,N
1589481115.4,286046999.8,N
1589481135.2,286046999.8,N
1589481155.1,286047004.4,N
1589481156.0,286047004.4,N
1589481175.8,286047004.1,N
1589481195.6,286046999.8,N
1589481215.5,286047000.1,N
1589481235.3,286047000.0,N
1589481255.2,286046998.2,N
1589481275.9,286047001.6,N
1589481295.7,286047000.5,N
1589481315.6,286047001.3,N
1589481335.4,286047002.7,N
1589481355.2,286047001.9,N
1589481375.1,286047003.5,N
1589481376.0,286047003.5,N
1589481395.8,286047003.6,N
1589481415.7,286047003.1,N
1589481435.5,286047000.1,N
1589481455.3,286046999.7,N
1589481475.2,286046999.7,N
1589481495.0,286046999.8,N
1589481495.9,286046999.8,N
1589481515.8,286047004.4,N
1589481535.6,286047001.5,N
1589481555.4,286047002.2,N
1589481575.3,286047001.6,N
1589481595.1,286047000.1,N
1589481615.8,286047002.8,N
1589481635.7,286047001.7,N
1589481655.5,286047002.2,N
1589481675.4,286046999.7,N
1589481695.2,286046999.7,N
1589481715.0,286047002.5,N
1589481715.9,286047002.5,N
1589481735.8,286047001.8,N
1589481755.6,286047003.5,N
1589481775.5,286047003.8,N
1589481795.3,286047001.6,N
1589481815.1,286047006.0,Y
1589481835.9,286047003.9,P
1589481855.7,286047003.5,P
1589481875.6,286047005.6,P
1589481895.4,286047005.6,Y
1589481915.2,286046998.3,P
1589481935.1,286047000.4,N
1589481936.0,286047000.4,N
1589481955.8,286046999.2,N
1589481975.7,286046996.5,N
1589481995.5,286046996.7,N
1589482015.3,286046998.1,N
1589482035.2,286046997.1,N
1589482055.0,286046996.5,N
1589482055.9,286046996.5,N
1589482075.7,286046996.9,N
1589482095.6,286046997.9,N
1589482115.4,286046995.6,N
1589482135.3,286046994.9,N
1589482155.1,286046999.0,N
1589482156.0,286046999.0,N
1589482175.8,286047001.0,N
1589482195.7,286047001.1,N
1589482215.5,286046998.1,N
1589482235.4,286046999.3,N
1589482255.2,286046999.5,N
1589482275.0,286046998.7,N
1589482275.9,286046998.7,N
1589482295.8,286046998.2,N
1589482315.6,286046999.4,N
1589482335.4,286047001.1,N
1589482355.3,286046997.7,N
1589482375.1,286046997.9,N
1589482395.9,286046995.3,N
1589482415.7,286046996.4,N
1589482435.5,286046997.6,N
1589482455.4,286046999.1,N
1589482475.2,286046998.2,N
1589482495.1,286046997.9,N
1589482496.0,286046997.9,N
1589482515.8,286046995.2,Y
1589482535.6,286046999.3,P
1589482555.5,286046998.9,N
1589482575.3,286047000.9,N
1589482595.1,286047000.4,N
1589482615.9,286047002.0,N
1589482635.7,286047002.3,N
1589482655.6,286047002.8,N
1589482675.4,286047000.6,N
1589482695.2,286047000.9,N
1589482715.1,286046998.8,N
1589482716.0,286046998.8,N
1589482735.8,286046996.7,N
1589482755.7,286047000.2,N
1589482775.5,286047001.7,N
1589482795.3,286047002.7,N
